Lid_Strength_Index
5 5 5 5 5 5 5 5 5 5 4 4 4 3 3 3 3 4 3 2 3 4 4 3 3 5 5 5 7 6 7 6 7 9 9 9 10 8 10 8 9 9 10 10 9 11 12 6 7 9 7 5 5 5
5 5 6 6 5 5 5 5 5 5 5 4 4 4 3 3 3 3 4 2 2 4 3 1 1 1 2 2 4 4 6 6 6 7 8 8 9 8 9 10 8 11 8 10 9 10 7 5 6 5 5 6 5 5
5 5 5 5 5 5 5 5 5 5 5 5 5 4 4 3 3 3 3 2 3 5 4 3 3 1 2 4 2 5 4 4 5 4 6 6 10 7 11 9 9 8 7 8 9 8 7 6 5 4 4 4 4 4
5 5 5 5 5 5 5 5 5 4 4 5 5 4 4 4 4 3 4 1 3 4 6 5 1 2 0 1 4 3 2 2 2 4 5 7 8 7 8 9 9 7 7 8 8 7 6 6 5 4 4 4 4 3
5 5 5 5 5 5 5 4 4 4 4 4 4 4 4 4 4 4 3 3 2 4 7 5 2 1 1 1 2 3 3 3 4 6 7 8 6 7 6 7 8 6 7 9 9 6 6 6 5 4 4 4 4 4
5 5 5 5 4 5 5 5 5 5 5 4 4 4 4 4 4 4 4 3 3 3 5 7 2 3 2 2 2 3 2 3 4 5 6 5 5 7 10 9 7 6 5 5 7 5 5 4 4 3 4 4 3 3
5 5 5 5 5 5 5 5 6 5 5 4 4 4 5 5 4 4 4 3 4 2 5 7 5 3 2 2 3 3 2 3 4 5 5 5 6 6 7 9 7 6 5 5 4 4 6 5 5 3 3 3 3 3
5 5 5 5 6 6 6 6 6 5 5 5 5 4 4 5 5 4 2 5 3 3 3 7 6 5 2 5 6 3 5 4 4 5 4 6 5 6 9 6 6 5 5 5 4 4 4 4 3 4 3 3 4 4
5 5 6 6 6 5 5 5 5 4 5 4 5 4 3 3 4 2 3 3 2 3 6 5 8 8 3 4 4 4 4 7 4 6 6 5 7 9 6 6 6 5 5 5 4 4 4 4 4 4 4 4 4 4
6 6 6 6 5 5 5 5 5 5 5 5 3 2 4 2 4 3 4 4 4 4 4 7 3 7 4 5 6 6 5 8 10 7 5 7 8 5 6 5 4 4 4 4 6 6 5 5 4 4 4 3 3 3
6 6 6 6 5 6 5 5 5 5 4 2 4 4 2 3 2 3 6 7 6 7 5 5 5 6 3 7 7 4 8 6 10 9 8 9 9 6 5 5 4 3 3 3 3 3 3 3 4 4 4 3 3 3
6 6 6 6 6 6 5 4 4 4 3 4 5 3 2 3 6 8 8 6 7 8 5 7 6 5 3 3 7 6 8 7 11 5 8 10 8 6 5 5 4 3 3 3 3 3 3 3 3 3 3 3 3 2
6 6 6 6 6 5 4 4 4 4 4 2 4 5 4 5 11 10 10 9 8 6 6 6 8 5 4 5 7 8 10 9 5 9 9 7 7 5 5 4 4 3 3 3 3 2 2 3 2 3 3 2 2 2
6 6 6 6 5 4 4 4 4 3 2 4 6 12 8 8 7 7 8 7 5 5 5 6 8 7 5 7 6 10 7 7 10 10 10 7 6 5 4 3 3 4 3 3 3 3 3 3 3 2 2 1 2 3
6 6 6 6 5 4 4 3 3 1 2 5 5 11 7 5 4 4 4 5 3 4 5 6 7 7 8 8 7 7 9 11 9 9 6 6 5 5 4 4 3 3 3 3 3 3 3 3 2 2 1 1 2 2
6 6 5 6 5 4 4 3 2 0 2 4 5 6 5 6 5 4 5 6 3 4 4 5 8 10 11 10 11 10 10 11 8 7 6 5 5 4 4 3 3 3 3 3 3 3 2 2 2 2 2 1 1 2
6 5 5 5 4 4 3 1 1 4 4 6 5 4 5 5 6 6 5 5 4 5 7 6 10 11 8 11 12 9 11 9 6 6 5 4 4 4 3 3 3 3 3 3 2 2 2 1 1 2 2 1 1 1
6 5 5 5 4 3 0 0 3 4 7 4 6 5 4 4 5 5 4 4 5 5 5 8 6 9 11 12 11 8 7 6 5 5 5 4 3 3 3 3 3 2 2 2 2 2 2 2 2 2 2 1 1 1
7 6 6 4 3 3 3 3 2 6 4 4 4 3 4 4 4 4 5 4 4 4 6 5 9 9 8 7 8 7 6 6 6 5 4 3 3 3 3 2 2 2 2 2 2 2 2 1 2 1 1 1 1 1
6 5 5 4 3 2 5 3 1 5 6 5 4 4 4 5 5 5 5 5 4 6 8 8 8 7 6 6 5 6 5 4 4 5 5 4 3 3 3 2 2 2 2 2 2 4 2 2 1 1 1 2 1 2
4 3 3 2 1 2 3 3 4 4 4 5 3 4 5 5 6 6 6 5 6 7 8 7 7 5 5 4 4 4 4 3 4 4 4 4 3 2 2 2 1 1 2 2 2 3 3 1 1 1 1 2 1 -0
2 4 2 0 3 3 4 2 4 3 4 5 4 4 6 6 7 7 5 7 8 7 6 6 5 5 5 5 4 2 2 2 2 3 4 3 3 3 3 2 2 2 1 1 2 2 2 1 0 0 1 1 2 1
3 2 1 2 5 6 7 2 6 5 7 6 5 6 6 6 5 4 8 5 6 4 4 4 4 3 4 3 3 2 2 2 3 3 2 2 2 2 2 2 2 2 3 2 1 1 1 4 2 1 1 1 1 1
3 3 5 5 5 8 4 6 4 5 5 6 7 8 7 6 3 6 8 6 5 3 4 4 3 4 3 3 3 3 2 2 2 2 2 2 3 3 2 2 2 2 2 2 1 2 1 1 3 1 1 1 1 1
7 7 6 10 5 7 8 7 7 6 8 7 8 8 7 4 7 8 8 6 5 4 4 3 3 3 4 4 3 2 2 1 2 3 2 1 2 2 2 1 1 1 0 2 3 2 2 1 2 0 0 1 2 2
11 6 9 7 6 7 7 9 8 8 7 8 7 5 4 5 8 9 7 6 5 4 4 4 4 4 4 3 3 2 2 1 1 2 2 1 1 2 2 2 2 2 -0 0 1 1 1 0 1 1 0 1 5 2
10 7 5 3 4 5 6 5 5 6 8 8 7 7 8 9 9 7 4 4 4 3 2 2 2 3 3 2 2 1 1 0 1 1 0 -0 -0 0 1 2 2 1 -0 -1 -0 1 1 1 1 1 1 1 1 1
5 6 8 6 5 4 7 7 8 9 7 6 7 10 10 9 8 5 3 2 1 1 1 1 1 1 2 1 1 1 1 0 0 0 0 0 -1 -0 -0 -1 -0 7 0 -0 0 -0 0 1 1 1 1 1 1 1
6 4 4 6 6 6 6 7 7 5 4 5 7 9 8 5 3 4 3 2 1 1 2 2 2 1 1 1 1 0 0 0 2 3 3 3 2 2 0 -1 -1 -1 -0 0 7 4 1 1 1 1 1 1 1 0
6 4 6 6 8 8 6 4 5 3 3 3 3 4 5 5 3 1 2 2 2 2 2 2 2 2 2 2 2 2 0 0 1 2 3 3 3 1 0 -0 0 -1 -1 -1 -0 0 5 2 2 -0 1 1 1 2
3 4 6 5 6 4 3 3 2 2 3 4 3 4 4 5 3 2 2 2 2 1 2 2 2 1 1 2 2 2 2 0 1 1 0 0 -0 -0 -0 -0 -1 -1 -1 -0 -0 0 1 1 1 1 1 1 1 2
4 6 6 8 6 3 3 3 4 4 4 5 5 4 4 5 6 3 1 1 1 1 3 1 2 2 1 0 -0 -0 6 0 1 1 2 -0 -1 -1 -0 -1 -0 -0 -0 0 0 1 1 1 1 1 1 1 1 1
5 4 5 5 5 6 4 5 5 5 5 5 5 4 4 5 7 4 0 0 1 2 2 1 1 -0 0 0 -0 -0 4 -0 2 8 8 9 10 6 2 -0 -0 -0 0 0 1 1 1 1 1 1 1 1 1 1